Back to catalog

DELTA 1 DEB

AliveSSO
NORAD 42584·DEBRIS·🇺🇸 United States

Launched Nov 6, 1973 from Vandenberg Space Force Base

Loading…

Next Passes (next 24 hours)

TLE

FreshSource: Space-Track

Epoch: Sep 11, 2026, 12:40 UTC

1 42584U 73086HY  26254.52795861 -.00000032  00000-0  11385-3 0  9996
2 42584 102.3956 271.2674 0019686 172.0301 343.0565 12.36927138578170

Track DELTA 1 DEB in real time with AllMySat

Download on the App Store